EHI
0 0 0 0 0 0 0 0 0 0 0 0 0 0 0 0 0 0 0 0 0 0 0 0 0 0 0 0 0 0 0 0 0 0 0 0 0 0 0 0 0 0 0
0 0 0 0 0 0 0 0 0 0 0 0 0 0 0 0 0 0 0 0 0 0 0 0 0 0 0 0 0 0 0 0 0 0 0 0 0 0 0 0 0 0 0
0 0 0 0 0 0 0 0 0 0 0 0 0 0 0 0 0 0 0 0 0 0 0 0 0 0 0 0 0 0 0 0 0 0 0 0 0 0 0 0 0 0 0
0 0 0 0 0 0 0 0 0 0 0 0 0 0 0 0 0 0 0 0 0 0 0 0 0 0 0 0 0 0 0 0 0 0 0 0 0 0 0 0 0 0 0
0 0 0 0 0 0 0 0 0 0 0 0 0 0 0 0 0 0 0 0 0 0 0 0 0 0 0 0 0 0 0 0 0 0 0 0 0 0 0 0 0 0 0
0 0 0 0 0 0 0 0 0 0 0 0 0 0 0 0 0 0 0 0 0 0 0 0 0 0 0 0 0 0 0 0 0 0 0 0 0 0 0 0 0 0 0
0 0 0 0 0 0 0 0 0 0 0 0 0 0 0 0 0 0 0 0 0 0 0 0 0 0 0 0 0 0 0 0 0 0 0 0 0 0 0 0 0 0 0
0 0 0 0 0 0 0 0 0 0 0 0 0 0 0 0 0 0 0 0 0 0 0 0 0 0 0 0 0 0 0 0 0 0 0 0 0 0 0 0 0 0 0
0 0 0 0 0 0 0 0 0 0 0 0 0 0 0 0 0 0 0 0 0 0 0 0 0 0 0 0 0 0 0 0 0 0 0 0 0 0 0 0 0 0 0
0 0 0 0 0 0 0 0 0 0 0 0 0 0 0 0 0 0 0 0 0 0 0 0 0 0 0 0 0 0 0 0 0 0 0 0 0 0 0 0 0 0 0
0 0 0 0 0 0 0 0 0 0 0 0 0 0 0 0 0 0 0 0 0 0 0 0 0 0 0 0 0 0 0 0 0 0 0 0 0 0 0 0 0 0 0
0 0 0 0 0 0 0 0 0 0 0 0 0 0 0 0 0 0 0 0 0 0 0 0 0 0 0 0 0 0 0 0 0 0 0 0 0 1 1 0 0 0 0
0 0 0 0 0 0 0 0 0 0 0 0 0 0 0 0 0 0 0 0 0 0 0 0 0 0 0 0 0 0 0 0 0 0 0 0 0 2 3 2 1 0 0
0 0 0 0 0 0 0 0 0 0 0 0 0 0 0 0 0 0 0 0 0 0 0 0 0 0 0 0 0 0 0 0 0 0 0 0 0 1 5 8 7 3 0
0 0 0 0 0 0 0 0 0 0 0 0 0 0 0 0 0 0 0 0 0 0 0 0 0 0 0 0 0 0 0 0 0 0 0 0 0 0 5 15 18 10 2
0 0 0 0 0 0 0 0 0 0 0 0 0 0 0 0 0 0 0 0 0 0 0 0 0 0 0 0 0 0 0 0 0 0 0 0 0 0 2 13 24 19 9
0 0 0 0 0 0 0 0 0 0 0 0 0 0 0 0 0 0 0 0 0 0 0 0 0 0 0 0 0 0 0 0 0 0 0 0 0 0 0 6 18 25 20
0 0 0 0 0 0 0 0 0 0 0 0 0 0 0 0 0 0 0 0 0 0 0 0 0 0 0 0 0 0 0 0 0 0 0 0 0 0 0 1 9 18 23
0 0 0 0 0 0 0 0 0 0 0 0 0 0 0 0 0 0 0 0 0 0 0 0 0 0 0 0 0 0 0 0 0 0 0 0 0 0 0 0 2 7 11
0 0 0 0 0 0 0 0 0 0 0 0 0 0 0 0 0 0 0 0 0 0 0 0 0 0 0 0 0 0 0 0 0 0 0 0 0 0 0 0 0 1 2
0 0 0 0 0 0 0 0 0 0 0 0 0 0 0 0 0 0 0 0 0 0 0 0 0 0 0 0 0 0 0 0 0 0 0 0 0 0 0 0 0 0 0
0 0 0 0 0 0 0 0 0 0 0 0 0 0 0 0 0 0 0 0 0 0 0 0 0 0 0 0 0 0 0 0 0 0 0 0 0 0 0 0 0 0 0
0 0 0 0 0 0 0 0 0 0 0 0 0 0 0 0 0 0 0 0 0 0 0 0 0 0 0 0 0 0 0 0 0 0 0 0 0 0 0 0 0 0 0
0 0 0 0 0 0 0 0 0 0 0 0 0 0 0 0 0 0 0 0 0 0 0 0 0 0 0 0 0 0 0 0 0 0 0 0 0 0 0 0 0 0 0
0 0 0 0 0 0 0 0 0 0 0 0 0 0 0 0 0 0 0 0 0 0 0 0 0 0 0 0 0 0 0 0 0 0 0 0 0 0 0 0 0 0 0
0 0 0 0 0 0 0 0 0 0 0 0 0 0 0 0 0 0 0 0 0 0 0 0 0 0 0 0 0 0 0 0 0 0 0 0 0 0 0 0 0 0 0
Wind_Speed
9 12 25 26 27 27 27 27 27 27 27 27 27 27 27 26 25 23 21 19 17 15 13 13 13 13 13 13 12 10 9 8 7 5 4 4 4 4 4 4 2 2 6
9 13 25 27 27 27 27 27 27 27 27 27 28 27 27 27 26 26 25 23 21 19 17 15 14 14 14 14 13 12 11 10 9 7 6 5 5 6 6 5 2 4 8
12 14 18 27 27 27 27 27 27 27 27 27 27 28 28 27 26 26 27 26 25 24 22 20 17 15 15 14 14 13 13 12 10 8 7 4 5 8 8 7 5 7 9
15 15 18 26 27 27 27 27 27 27 27 27 27 27 27 28 27 26 27 26 26 26 25 23 21 19 17 16 15 14 14 14 12 9 5 4 5 9 10 10 9 9 9
15 15 18 27 28 27 27 28 28 27 28 27 28 28 27 27 27 26 27 27 26 26 26 25 24 23 21 18 17 15 15 15 12 9 5 5 5 9 12 13 13 11 10
12 13 18 28 28 27 27 28 28 28 28 28 28 28 28 28 27 26 27 27 27 27 26 25 25 25 24 22 19 17 16 15 11 6 6 6 5 11 14 15 15 13 12
11 12 17 28 28 28 27 28 27 27 28 28 28 28 28 28 28 26 27 27 27 27 27 26 25 26 26 25 23 20 18 15 9 6 7 6 7 13 15 16 17 16 15
11 12 15 25 28 28 27 28 27 27 28 27 27 28 27 28 27 27 28 28 28 27 27 26 26 26 26 25 25 24 21 16 12 8 7 7 13 16 16 17 18 18 17
10 12 13 14 18 24 26 27 27 27 27 27 27 28 27 27 27 27 28 28 28 28 27 27 27 27 26 25 24 25 24 21 11 6 9 7 14 18 18 17 18 19 18
10 11 12 12 14 14 13 24 27 26 27 27 27 28 27 25 24 26 26 27 28 27 27 27 27 27 27 25 25 25 25 18 9 9 7 8 17 20 19 18 19 19 19
13 11 11 12 14 14 13 19 20 22 24 24 21 26 22 12 13 15 23 27 28 27 27 27 27 27 26 23 25 25 19 10 13 9 7 13 20 22 22 20 19 20 20
12 11 10 12 14 14 13 11 8 11 11 12 12 13 11 11 12 17 23 26 27 26 26 26 27 23 19 13 16 19 9 13 10 9 9 17 21 23 23 22 21 22 22
7 11 12 11 12 11 9 9 6 7 7 9 11 12 10 8 9 10 9 12 14 17 12 17 16 12 12 12 12 11 11 11 8 9 11 20 21 22 22 23 24 24 24
8 9 9 8 9 9 8 7 6 7 7 8 10 11 9 7 8 9 8 10 10 8 11 11 10 13 14 14 14 14 13 10 9 8 10 21 22 22 22 23 25 26 26
7 7 7 7 9 9 8 8 9 7 9 9 8 9 10 8 9 9 8 9 10 9 10 11 11 13 14 14 13 15 15 14 13 11 9 20 23 22 21 22 24 26 27
5 7 8 7 9 9 8 8 7 7 8 8 8 10 11 9 9 9 9 8 9 10 10 10 12 12 12 12 14 15 15 14 12 13 11 14 20 22 21 21 22 24 26
5 6 8 9 9 8 8 9 8 7 8 8 8 9 11 11 10 10 9 8 9 10 11 11 11 10 12 12 13 14 13 13 14 15 14 11 11 17 20 20 20 22 24
5 5 7 10 8 8 7 7 6 6 7 7 7 8 11 12 12 10 9 8 10 9 10 10 10 11 12 12 12 11 11 12 15 15 13 12 9 9 13 18 18 21 23
4 5 6 7 8 7 7 6 6 5 5 6 6 6 10 12 13 10 8 8 11 9 9 11 11 11 13 13 13 12 11 12 14 14 14 13 11 10 8 13 16 17 21
4 5 6 7 7 7 6 5 5 5 5 5 5 7 10 10 12 10 7 9 10 9 9 10 12 12 11 12 14 14 13 13 12 10 11 10 9 10 9 9 8 9 16
6 7 6 7 7 7 7 8 8 9 8 7 7 9 10 11 12 10 9 9 9 9 10 12 12 13 11 11 12 13 12 11 10 6 6 8 8 9 8 7 6 6 6
4 5 5 6 7 7 5 5 5 6 5 6 6 7 8 10 11 11 10 9 9 9 10 11 12 10 10 10 10 11 8 7 5 8 6 6 8 9 10 9 7 6 6
3 5 7 6 7 7 7 5 7 5 4 5 6 6 8 10 10 9 10 9 9 8 8 11 10 12 12 11 8 7 7 6 12 7 5 5 7 9 9 9 9 8 7
3 4 5 6 6 6 6 6 9 9 8 8 7 7 9 9 10 10 11 9 9 9 9 10 11 10 12 11 9 7 7 8 7 9 7 5 7 9 9 10 10 10 9
4 5 5 6 6 6 6 7 7 7 6 7 8 9 8 7 8 10 11 9 10 9 9 11 11 11 10 10 10 9 9 7 7 8 13 12 10 6 7 9 8 8 9
5 5 6 6 6 6 7 7 8 9 9 11 11 9 9 7 7 10 12 8 10 9 10 10 10 11 11 12 10 9 8 7 7 7 10 14 13 10 10 8 7 7 7
Wind_Direction
335 346 2 10 14 17 19 20 20 21 21 20 18 16 14 12 10 7 3 357 349 341 335 331 328 326 323 319 315 310 305 298 295 294 293 284 253 204 167 152 186 206 176
341 355 5 11 12 14 16 18 19 19 19 19 18 16 14 13 12 11 7 3 357 350 343 334 326 321 318 315 310 304 295 288 283 281 277 274 262 237 199 173 193 184 176
12 5 2 12 11 12 14 15 16 16 16 17 17 15 13 12 12 12 9 6 2 357 351 344 334 322 314 310 306 300 292 284 277 271 269 261 257 245 218 186 180 173 175
23 11 5 13 12 11 13 14 13 14 14 14 15 14 13 10 9 10 8 5 3 360 356 351 344 334 321 309 302 297 290 282 275 266 260 246 245 249 229 201 190 184 182
26 13 5 15 13 12 13 14 12 13 13 12 13 11 11 9 7 7 6 2 0 359 356 352 349 344 334 320 306 295 287 281 273 263 250 247 244 258 245 214 200 193 189
25 13 7 16 14 13 14 14 12 13 12 11 10 9 8 7 4 4 5 0 358 356 353 352 350 348 343 335 319 301 289 282 275 258 245 242 240 256 256 223 204 198 194
25 18 13 16 14 13 13 13 12 13 11 10 8 7 6 5 2 2 3 358 355 354 351 350 350 349 346 341 335 320 300 290 278 255 246 241 241 253 258 229 207 202 198
27 21 17 15 14 12 12 12 10 11 10 9 7 6 6 4 0 1 360 355 353 352 349 349 349 346 344 342 341 338 325 305 284 264 250 243 247 251 255 235 213 205 202
29 23 17 13 12 9 9 10 9 10 8 8 6 5 5 4 0 0 357 353 352 351 350 348 347 345 343 340 340 339 337 324 296 270 263 252 253 251 249 237 219 210 205
29 24 17 12 10 3 360 7 7 7 7 7 5 3 5 3 359 358 354 350 351 349 350 348 347 344 343 340 339 338 335 330 315 285 265 258 258 255 250 238 221 214 208
24 20 15 13 10 3 1 3 4 4 3 3 1 1 2 357 352 356 349 349 349 347 349 346 346 344 343 338 337 336 337 333 322 304 278 265 263 259 253 243 227 217 210
17 14 17 17 10 4 1 356 358 358 355 354 355 357 357 355 351 355 346 347 347 345 347 345 344 344 342 334 332 336 332 329 325 318 302 285 274 266 259 249 236 223 215
15 16 15 19 8 1 357 352 359 352 350 350 352 355 356 352 349 349 344 343 340 342 342 340 339 338 336 332 328 326 327 327 321 317 312 307 297 282 268 256 244 231 221
26 15 5 18 7 359 357 348 358 353 351 351 348 352 356 352 349 347 342 337 336 337 337 336 332 331 333 329 326 324 326 322 316 311 306 312 309 298 282 267 250 236 226
29 8 358 15 12 2 2 355 0 352 351 346 346 351 355 351 348 344 340 336 332 335 336 332 331 329 331 327 325 324 321 317 310 308 308 307 308 303 293 278 255 237 227
30 13 0 15 13 1 2 355 353 351 348 344 346 350 353 349 345 343 338 333 336 337 331 328 324 326 324 322 320 320 315 310 307 308 303 302 303 303 299 287 262 239 228
37 18 8 10 8 356 356 354 352 344 344 345 346 349 349 348 345 342 336 336 339 334 330 328 323 326 321 320 317 315 311 308 307 305 301 295 294 298 297 294 272 247 233
41 24 11 6 359 351 349 343 337 337 339 341 343 346 346 347 345 341 334 338 337 336 334 329 330 327 322 318 314 311 308 307 304 299 295 291 288 288 292 292 281 258 241
45 24 10 357 352 346 340 335 325 327 332 334 337 343 345 345 344 339 332 337 337 336 334 331 331 325 321 316 312 309 308 302 295 293 293 292 286 280 277 283 281 268 250
37 24 11 353 347 342 339 338 336 340 339 337 336 342 344 343 342 336 337 337 338 336 333 330 327 324 318 316 314 310 302 291 284 284 291 296 294 292 283 275 275 270 254
25 12 2 351 346 350 351 352 348 346 341 340 340 340 340 340 339 336 341 334 336 333 328 326 327 323 322 320 315 312 298 279 275 291 306 310 315 319 306 290 272 262 259
8 349 353 351 346 347 343 334 330 325 319 325 320 323 330 336 335 340 337 332 331 328 325 327 324 323 320 323 316 313 313 308 334 314 303 312 337 335 326 319 306 289 262
345 345 359 346 341 338 335 333 335 322 315 326 325 328 332 331 330 327 328 326 326 325 322 323 319 325 319 314 310 307 314 324 325 298 299 319 334 328 332 331 330 316 290
341 347 348 339 334 332 336 341 343 345 334 330 325 320 321 322 323 326 325 322 323 321 319 319 325 316 314 313 312 297 299 302 302 309 310 318 320 321 323 328 329 324 310
358 348 339 333 328 328 334 334 331 328 319 320 322 320 317 316 317 323 322 321 321 319 316 315 315 314 311 307 306 306 300 293 281 292 301 313 317 309 315 314 311 308 310
351 342 336 333 326 328 332 330 326 324 321 325 327 323 325 321 318 318 320 319 317 315 315 314 313 310 308 304 304 300 299 300 305 301 297 305 306 309 308 299 294 294 302